星链-5413 (STARLINK-5413 )

导读 | 豆包AI

STARLINK-5413是美国SpaceX公司星链(Starlink)星座中的卫星,于2022年12月17日发射。作为全球最大卫星互联网项目的组成部分,它旨在为全球偏远、无网络覆盖区域提供低延迟高速宽带服务。 星链星座计划部署数万颗卫星,STARLINK-5413属于批量发射的组网卫星,配备激光通信终端,助力构建全球无缝覆盖的太空互联网,推动卫星互联网服务商业化落地。

基本信息
目录编号:
54808
目录名称:
STARLINK-5413
国际标识:
2022-175BC
轨道中心:
EARTH
卫星名称:
星链-5413
卫星全名:
星链-5413 (STARLINK-5413 )
卫星状态:
在轨 (已飞行1230 天)
发射日期:
2022-12-17 UTC
国别 :
美国 (US)
星等 :
--
轨道信息
数据来源 国际轨道数据 AOE轨道数据
星历时间 2026-04-29T22:16:40+0800
23小时前
查看轨道信息
2026-04-27T08:00:00+0800
3天前
查看轨道信息
半长轴 6917.882km 6917.875km
偏心率 0.0001018 0.0001033
轨道倾角 53.215° 53.216°
近地点辐角 71.970° 68.652°
升交点赤经 145.769° 157.417°
平近点角 288.140° 228.738°
近地点 539.04km 539.023km
远地点 540.45km 540.453km
周期 95.438分钟 95.437分钟
每日圈数 15.088397 15.088419
详细信息
固有亮度:
5
最大亮度:
2.5
卫星平台:
Starlink v1.5
覆盖范围:
全球
运营商:
太空探索技术公司
运营商所在国:
美国
制造商(研发单位):
太空探索技术公司
制造商所在国:
美国
使用方式:
暂无
卫星简介
星链(Starlink)计划是由太空探索技术公司(SpaceX)提出的一个巨型低轨卫星互联网星座项目,计划在2019年至2024年间在太空搭建由约1.2万颗卫星组成的“星链”网络,其中1584颗将部署在地球上空550千米处的近地轨道,并从2020年开始工作。该卫星仍在工作。
2D轨道图
3D轨道图
轨道高度分析图
轨道倾角分析图
轨道综合分析图
查看轨道综合分析图